Time,TemperatureF,DewpointF,PressureIn,WindDirection,WindDirectionDegrees,WindSpeedMPH,WindSpeedGustMPH,Humidity,HourlyPrecipIn,Conditions,Clouds,dailyrainin,SolarRadiationWatts/m^2,SoftwareType,DateUTC
2018-04-20 00:00:00,37.5,26.5,30.02,WNW,302,3.0,13.0,64,0.00,,---,0.00,0.00,VWS V14.01,2018-04-20 04:00:00,
2018-04-20 00:05:00,37.4,26.4,30.02,WNW,303,4.0,13.0,64,0.01,,---,0.01,0.00,VWS V14.01,2018-04-20 04:05:00,
2018-04-20 00:10:00,37.4,26.7,30.02,NNW,329,2.0,7.0,65,0.01,,---,0.01,0.00,VWS V14.01,2018-04-20 04:10:00,
2018-04-20 00:15:00,37.3,26.3,30.03,NW,314,4.0,8.0,64,0.01,,---,0.01,0.00,VWS V14.01,2018-04-20 04:15:00,
2018-04-20 00:20:00,37.3,26.3,30.02,West,277,6.0,6.0,64,0.01,,---,0.01,0.00,VWS V14.01,2018-04-20 04:20:00,
2018-04-20 00:25:00,37.1,26.1,30.02,NW,318,3.0,9.0,64,0.01,,---,0.01,0.00,VWS V14.01,2018-04-20 04:25:00,
2018-04-20 00:30:00,37.1,26.1,30.02,NNW,348,1.0,9.0,64,0.01,,---,0.01,0.00,VWS V14.01,2018-04-20 04:30:00,
2018-04-20 00:35:00,37.0,26.0,30.03,NW,312,5.0,11.0,64,0.01,,---,0.01,0.00,VWS V14.01,2018-04-20 04:35:00,
2018-04-20 00:40:00,37.0,26.0,30.03,WNW,290,6.0,11.0,64,0.01,,---,0.01,0.00,VWS V14.01,2018-04-20 04:40:00,
2018-04-20 00:45:00,36.9,25.9,30.03,WNW,300,7.0,11.0,64,0.01,,---,0.01,0.00,VWS V14.01,2018-04-20 04:45:00,
2018-04-20 00:50:00,36.8,26.1,30.03,NW,306,5.0,6.0,65,0.01,,---,0.01,0.00,VWS V14.01,2018-04-20 04:50:00,
2018-04-20 00:55:00,36.8,26.1,30.04,NW,306,6.0,9.0,65,0.01,,---,0.01,0.00,VWS V14.01,2018-04-20 04:55:00,
2018-04-20 01:00:00,36.7,26.1,30.03,NW,306,4.0,11.0,65,0.01,,---,0.01,0.00,VWS V14.01,2018-04-20 05:00:00,
2018-04-20 01:05:00,36.6,26.0,30.03,WNW,295,6.0,12.0,65,0.01,,---,0.01,0.00,VWS V14.01,2018-04-20 05:05:00,
2018-04-20 01:10:00,36.6,26.0,30.03,NNW,333,3.0,10.0,65,0.00,,---,0.01,0.00,VWS V14.01,2018-04-20 05:10:00,
2018-04-20 01:15:00,36.6,26.0,30.03,NNW,338,3.0,10.0,65,0.00,,---,0.01,0.00,VWS V14.01,2018-04-20 05:15:00,
2018-04-20 01:20:00,36.5,25.9,30.03,NW,312,3.0,10.0,65,0.00,,---,0.01,0.00,VWS V14.01,2018-04-20 05:20:00,
2018-04-20 01:25:00,36.5,25.9,30.03,WNW,288,6.0,10.0,65,0.00,,---,0.01,0.00,VWS V14.01,2018-04-20 05:25:00,
2018-04-20 01:30:00,36.5,26.2,30.03,NNW,347,8.0,9.0,66,0.00,,---,0.01,0.00,VWS V14.01,2018-04-20 05:30:00,
2018-04-20 01:35:00,36.4,25.8,30.03,North,355,5.0,11.0,65,0.00,,---,0.01,0.00,VWS V14.01,2018-04-20 05:35:00,
2018-04-20 01:40:00,36.2,26.0,30.03,North,355,7.0,7.0,66,0.00,,---,0.01,0.00,VWS V14.01,2018-04-20 05:40:00,
2018-04-20 01:45:00,36.2,26.0,30.03,NNW,334,4.0,8.0,66,0.00,,---,0.01,0.00,VWS V14.01,2018-04-20 05:45:00,
2018-04-20 01:50:00,36.2,25.6,30.03,West,279,5.0,9.0,65,0.00,,---,0.01,0.00,VWS V14.01,2018-04-20 05:50:00,
2018-04-20 01:55:00,36.2,26.0,30.03,WNW,291,2.0,9.0,66,0.00,,---,0.01,0.00,VWS V14.01,2018-04-20 05:55:00,
2018-04-20 02:00:00,36.2,25.6,30.03,WNW,287,2.0,15.0,65,0.00,,---,0.01,0.00,VWS V14.01,2018-04-20 06:00:00,
2018-04-20 02:05:00,36.1,25.5,30.03,WNW,286,3.0,15.0,65,0.00,,---,0.01,0.00,VWS V14.01,2018-04-20 06:05:00,
2018-04-20 02:10:00,36.1,25.1,30.03,WSW,243,3.0,7.0,64,0.00,,---,0.01,0.00,VWS V14.01,2018-04-20 06:10:00,
2018-04-20 02:16:00,36.1,25.5,30.03,WNW,291,3.0,10.0,65,0.00,,---,0.01,0.00,VWS V14.01,2018-04-20 06:16:00,
2018-04-20 02:21:00,36.1,25.1,30.03,West,271,6.0,8.0,64,0.00,,---,0.01,0.00,VWS V14.01,2018-04-20 06:21:00,
2018-04-20 02:26:00,36.0,25.0,30.03,North,350,3.0,9.0,64,0.00,,---,0.01,0.00,VWS V14.01,2018-04-20 06:26:00,
2018-04-20 02:31:00,36.1,25.1,30.03,NW,324,5.0,5.0,64,0.00,,---,0.01,0.00,VWS V14.01,2018-04-20 06:31:00,
2018-04-20 02:36:00,36.1,25.1,30.03,WNW,299,2.0,6.0,64,0.00,,---,0.01,0.00,VWS V14.01,2018-04-20 06:36:00,
2018-04-20 02:41:00,36.1,25.1,30.04,NW,319,2.0,6.0,64,0.00,,---,0.01,0.00,VWS V14.01,2018-04-20 06:41:00,
2018-04-20 02:46:00,36.0,25.0,30.04,North,351,13.0,17.0,64,0.00,,---,0.01,0.00,VWS V14.01,2018-04-20 06:46:00,
2018-04-20 02:51:00,35.9,24.9,30.04,WNW,289,4.0,10.0,64,0.00,,---,0.01,0.00,VWS V14.01,2018-04-20 06:51:00,
2018-04-20 02:56:00,35.8,24.8,30.05,WNW,297,2.0,12.0,64,0.00,,---,0.01,0.00,VWS V14.01,2018-04-20 06:56:00,
2018-04-20 03:01:00,35.8,24.8,30.05,WNW,300,3.0,7.0,64,0.00,,---,0.01,0.00,VWS V14.01,2018-04-20 07:01:00,
2018-04-20 03:06:00,35.8,25.2,30.05,WNW,302,6.0,7.0,65,0.00,,---,0.01,0.00,VWS V14.01,2018-04-20 07:06:00,
2018-04-20 03:11:00,35.8,25.2,30.05,NW,315,3.0,5.0,65,0.00,,---,0.01,0.00,VWS V14.01,2018-04-20 07:11:00,
2018-04-20 03:16:00,35.8,25.2,30.05,WNW,302,3.0,6.0,65,0.00,,---,0.01,0.00,VWS V14.01,2018-04-20 07:16:00,
2018-04-20 03:21:00,35.7,25.1,30.06,West,271,5.0,8.0,65,0.00,,---,0.01,0.00,VWS V14.01,2018-04-20 07:21:00,